Drummond Island, MI

11:58 AM EST on December 16, 2017 (GMT -0500)
Drummond Island

Weather History for KDRM - February, 2014

Change the Weather History Date:

Friday, February 7, 2014

  Actual Average (KCIU) Record (KCIU)
Temperature  
Mean Temperature 11 °F -  
Max Temperature 16 °F 26 °F 37 °F (2005)
Min Temperature 6 °F 2 °F -21 °F (1984)
Degree Days  
Heating Degree Days 54    
Moisture  
Dew Point 6 °F    
Average Humidity 75    
Maximum Humidity 85    
Minimum Humidity 65    
Precipitation  
Precipitation 0.00 in - - ()
Sea Level Pressure  
Sea Level Pressure 30.01 in    
Wind  
Wind Speed 8 mph (WSW)    
Max Wind Speed 18 mph    
Max Gust Speed 32 mph    
Visibility 5 miles    
Events Snow    
Averages and records for this station are not official NWS values.
T = Trace of Precipitation, MM = Missing Value Source: NWS Daily Summary

Daily Weather History Graph

Daily Weather History Graph

Search for Another Location

Airport or City:

Trip Planner

Search our weather history database for the weather conditions in past years. The results will help you decide how hot, cold, wet, or windy it might be!

Date:

Astronomy

Feb. 07, 2014 Rise Set
Actual Time 7:49 AM EST 5:49 PM EST
Civil Twilight 7:18 AM EST 6:20 PM EST
Nautical Twilight 6:42 AM EST 6:56 PM EST
Astronomical Twilight 6:07 AM EST 7:31 PM EST
Moon 11:56 AM EST (2/7) 2:07 AM EST (2/7)
Length of Visible Light 11h 02m
Length of Day
9h 59m
First Quarter, 59% of the Moon is Illuminated
Feb 7
First Quarter
Feb 14
Full
Feb 22
Last Quarter
Mar 1
New
Mar 8
First Quarter

Hourly Weather History & Observations

Time (EST) Temp. Windchill Dew Point Humidity Pressure Visibility Wind Dir Wind Speed Gust Speed Precip Events Conditions
12:17 AM 12.2 °F 6.1 °F 3.2 °F 67% 30.03 in 10.0 mi West 3.5 mph - N/A   Overcast
12:38 AM 11.8 °F 0.3 °F 2.7 °F 67% 30.03 in 10.0 mi West 8.1 mph 16.1 mph N/A   Overcast
12:57 AM 11.3 °F 1.9 °F 2.3 °F 67% 30.03 in 10.0 mi West 5.8 mph 16.1 mph N/A   Overcast
1:17 AM 10.8 °F 1.2 °F 2.3 °F 69% 30.03 in 10.0 mi West 5.8 mph - N/A   Overcast
1:38 AM 10.2 °F -1.7 °F 2.3 °F 70% 30.03 in 10.0 mi West 8.1 mph - N/A   Overcast
1:57 AM 9.5 °F -1.5 °F 1.9 °F 71% 30.03 in 10.0 mi West 6.9 mph - N/A   Overcast
2:18 AM 9.3 °F -0.5 °F 1.4 °F 70% 30.03 in 10.0 mi West 5.8 mph - N/A   Overcast
2:37 AM 9.1 °F -3.0 °F 1.4 °F 71% 30.03 in 10.0 mi WSW 8.1 mph - N/A   Overcast
2:57 AM 8.8 °F 0.4 °F 1.4 °F 72% 30.03 in 10.0 mi West 4.6 mph - N/A Snow Light Snow
3:17 AM 8.6 °F -3.7 °F 2.1 °F 75% 30.03 in 5.0 mi West 8.1 mph - N/A Snow Light Snow
3:37 AM 8.6 °F -2.6 °F 2.5 °F 76% 30.03 in 4.0 mi West 6.9 mph - N/A Snow Light Snow
3:58 AM 8.2 °F -1.8 °F 2.8 °F 79% 30.03 in 4.0 mi West 5.8 mph - N/A Snow Light Snow
4:17 AM 8.2 °F -1.8 °F 3.2 °F 80% 30.03 in 1.8 mi West 5.8 mph - N/A Snow Light Snow
4:37 AM 7.7 °F -2.4 °F 2.7 °F 80% 30.03 in 3.0 mi West 5.8 mph - N/A Snow Light Snow
4:58 AM 7.5 °F -1.1 °F 2.7 °F 81% 30.03 in 2.0 mi West 4.6 mph - N/A Snow Light Snow
5:17 AM 7.7 °F -2.4 °F 3.0 °F 81% 30.03 in 3.0 mi West 5.8 mph - N/A Snow Light Snow
5:37 AM 7.5 °F -3.9 °F 3.0 °F 82% 30.02 in 1.2 mi West 6.9 mph - N/A Snow Light Snow
5:57 AM 7.3 °F -5.2 °F 2.8 °F 82% 30.02 in 1.5 mi West 8.1 mph - N/A Snow Light Snow
6:17 AM 6.8 °F -3.5 °F 2.3 °F 82% 30.02 in 1.8 mi West 5.8 mph - N/A Snow Light Snow
6:38 AM 7.9 °F -6.4 °F 3.7 °F 83% 30.01 in 10.0 mi West 10.4 mph 16.1 mph N/A Snow Light Snow
6:57 AM 9.1 °F -3.0 °F 4.1 °F 80% 30.01 in 7.0 mi West 8.1 mph 19.6 mph N/A   Overcast
7:17 AM 8.2 °F -5.1 °F 3.6 °F 81% 30.01 in 10.0 mi West 9.2 mph - N/A Snow Light Snow
7:38 AM 9.0 °F -4.2 °F 4.1 °F 81% 30.01 in 5.0 mi WSW 9.2 mph 16.1 mph N/A Snow Light Snow
7:57 AM 9.3 °F -2.8 °F 4.6 °F 81% 30.01 in 4.0 mi West 8.1 mph 19.6 mph N/A Snow Light Snow
8:18 AM 9.0 °F -0.9 °F 4.1 °F 81% 30.01 in 3.0 mi West 5.8 mph - N/A Snow Light Snow
8:37 AM 8.8 °F -2.4 °F 4.1 °F 81% 30.02 in 2.0 mi West 6.9 mph - N/A Snow Light Snow
8:57 AM 9.1 °F -0.7 °F 4.8 °F 83% 30.02 in 1.5 mi WSW 5.8 mph - N/A Snow Light Snow
9:18 AM 10.2 °F -1.7 °F 5.7 °F 82% 30.01 in 1.5 mi WSW 8.1 mph - N/A Snow Light Snow
9:37 AM 10.4 °F -3.3 °F 5.7 °F 81% 30.01 in 1.5 mi WSW 10.4 mph 17.3 mph N/A Snow Light Snow
9:57 AM 10.9 °F -2.6 °F 4.6 °F 76% 30.01 in 2.5 mi WSW 10.4 mph 19.6 mph N/A Snow Light Snow
10:18 AM 11.1 °F -3.2 °F 4.8 °F 76% 30.01 in 5.0 mi SW 11.5 mph 19.6 mph N/A   Haze
10:37 AM 11.3 °F -1.3 °F 4.6 °F 75% 30.01 in 4.0 mi SW 9.2 mph 20.7 mph N/A   Haze
10:57 AM 11.5 °F -2.7 °F 4.8 °F 75% 30.01 in 5.0 mi SW 11.5 mph 17.3 mph N/A   Haze
11:18 AM 12.0 °F -4.0 °F 4.6 °F 72% 30.01 in 4.0 mi SW 15.0 mph 25.3 mph N/A   Haze
11:37 AM 12.2 °F 0.7 °F 5.0 °F 73% 30.00 in 3.0 mi SW 8.1 mph 24.2 mph N/A   Haze
11:57 AM 13.1 °F -2.0 °F 5.5 °F 72% 29.99 in 3.0 mi SW 13.8 mph 23.0 mph N/A   Haze
12:18 PM 13.5 °F 2.2 °F 5.5 °F 71% 29.99 in 3.0 mi SW 8.1 mph 20.7 mph N/A   Haze
12:37 PM 14.0 °F 1.2 °F 5.0 °F 67% 29.98 in 7.0 mi WSW 10.4 mph 21.9 mph N/A   Overcast
12:58 PM 14.0 °F -0.8 °F 5.9 °F 70% 29.98 in 2.0 mi WSW 13.8 mph 27.6 mph N/A Snow Light Snow
1:17 PM 14.0 °F -0.2 °F 6.3 °F 71% 29.98 in 2.0 mi West 12.7 mph 21.9 mph N/A Snow Light Snow
1:37 PM 14.0 °F -0.2 °F 7.3 °F 75% 29.98 in 2.0 mi WSW 12.7 mph 23.0 mph N/A Snow Light Snow
1:58 PM 14.4 °F 0.9 °F 6.8 °F 72% 29.97 in 2.0 mi WSW 11.5 mph 23.0 mph N/A Snow Light Snow
2:17 PM 15.3 °F 0.8 °F 6.3 °F 68% 29.97 in 2.5 mi WSW 13.8 mph 32.2 mph N/A   Haze
2:37 PM 15.4 °F 1.0 °F 5.9 °F 66% 29.96 in 3.0 mi WSW 13.8 mph 23.0 mph N/A   Haze
2:58 PM 15.3 °F 0.2 °F 6.6 °F 69% 29.96 in 3.0 mi WSW 15.0 mph 25.3 mph N/A   Haze
3:17 PM 15.1 °F 0.5 °F 7.3 °F 71% 29.97 in 2.5 mi WSW 13.8 mph 21.9 mph N/A Snow Light Snow
3:37 PM 14.9 °F -0.3 °F 7.5 °F 73% 29.97 in 4.0 mi WSW 15.0 mph 23.0 mph N/A Snow Light Snow
3:58 PM 14.9 °F 0.3 °F 7.5 °F 73% 29.98 in 4.0 mi SW 13.8 mph 24.2 mph N/A Snow Light Snow
4:17 PM 14.9 °F 0.9 °F 7.7 °F 73% 29.98 in 2.5 mi WSW 12.7 mph 20.7 mph N/A Snow Light Snow
4:38 PM 14.5 °F 0.5 °F 8.6 °F 77% 29.98 in 4.0 mi WSW 12.7 mph 21.9 mph N/A Snow Light Snow
4:57 PM 14.9 °F -0.8 °F 7.3 °F 72% 29.99 in 3.0 mi WSW 16.1 mph 23.0 mph N/A Snow Light Snow
5:17 PM 14.9 °F -1.8 °F 7.2 °F 71% 29.99 in 2.0 mi WSW 18.4 mph 27.6 mph N/A Snow Light Snow
5:38 PM 15.3 °F 3.5 °F 8.4 °F 74% 29.99 in 2.5 mi WSW 9.2 mph 20.7 mph N/A Snow Light Snow
5:57 PM 14.2 °F 5.3 °F 9.7 °F 82% 29.99 in 1.5 mi West 5.8 mph - N/A Snow Light Snow
6:17 PM 14.0 °F 6.5 °F 10.2 °F 85% 30.00 in 1.0 mi West 4.6 mph - N/A Snow Light Snow
6:38 PM 14.4 °F 5.5 °F 10.6 °F 85% 30.00 in 1.5 mi West 5.8 mph - N/A Snow Light Snow
6:57 PM 14.7 °F 5.9 °F 10.9 °F 85% 30.01 in 2.5 mi West 5.8 mph - N/A Snow Light Snow
7:17 PM 15.3 °F 3.5 °F 11.3 °F 84% 30.02 in 2.5 mi West 9.2 mph - N/A Snow Light Snow
7:38 PM 15.3 °F 6.6 °F 11.3 °F 84% 30.02 in 2.5 mi West 5.8 mph - N/A Snow Light Snow
7:57 PM 15.3 °F 7.9 °F 10.9 °F 83% 30.02 in 3.0 mi West 4.6 mph - N/A Snow Light Snow
8:18 PM 15.8 °F 7.2 °F 11.1 °F 82% 30.02 in 7.0 mi West 5.8 mph - N/A Snow Light Snow
8:38 PM 16.2 °F 7.6 °F 11.1 °F 81% 30.02 in 7.0 mi West 5.8 mph - N/A Snow Light Snow
8:57 PM 15.8 °F 5.1 °F 10.6 °F 80% 30.02 in 10.0 mi West 8.1 mph - N/A Snow Light Snow
9:18 PM 15.8 °F 2.7 °F 9.5 °F 76% 30.02 in 10.0 mi WSW 11.5 mph 21.9 mph N/A   Mostly Cloudy
9:37 PM 15.6 °F 4.0 °F 8.4 °F 73% 30.02 in 10.0 mi West 9.2 mph 17.3 mph N/A   Scattered Clouds
9:58 PM 15.4 °F 3.0 °F 7.7 °F 71% 30.03 in 10.0 mi West 10.4 mph 19.6 mph N/A   Clear
10:17 PM 15.3 °F 3.5 °F 7.3 °F 71% 30.03 in 10.0 mi West 9.2 mph 18.4 mph N/A   Clear
10:37 PM 15.4 °F 2.3 °F 6.6 °F 68% 30.03 in 10.0 mi WSW 11.5 mph 19.6 mph N/A   Clear
10:58 PM 15.6 °F 0.6 °F 5.9 °F 66% 30.03 in 7.0 mi WSW 15.0 mph 21.9 mph N/A   Clear
11:17 PM 15.3 °F 5.4 °F 5.4 °F 65% 30.04 in 7.0 mi West 6.9 mph 23.0 mph N/A Snow Light Snow
11:37 PM 14.5 °F 4.6 °F 5.0 °F 66% 30.05 in 10.0 mi West 6.9 mph 18.4 mph N/A   Clear
11:58 PM 13.3 °F 4.2 °F 4.3 °F 67% 30.05 in 10.0 mi West 5.8 mph 17.3 mph N/A   Clear